When you browse on this site, cookies collect data to enhance your experience and personalize the content and advertising you see.
Visit our Privacy Policy to learn more. By continuing to use the site, you agree to this use of cookies and data.
  • En España
  • Lista de países
  • Para 7 días
  • Temperatura del agua
  • El tiempo en el mapa
  • Informadores
  • user-avatar
    Iniciar sesión

    Tiempo cada hora Bedford

    Hoy, 4 Junio, Jueves

    Tiempo Temperatura Precipitaciones Viento Presión Humedad
    00:00 +9°C° 0 mm 5 mps 752 mmHg 89%
    01:00 +8°C° 0 mm 5 mps 752 mmHg 91%
    02:00 +7°C° 0 mm 4 mps 751 mmHg 93%
    03:00 +6°C° 0 mm 4 mps 751 mmHg 95%
    04:00 +7°C° 0 mm 5 mps 751 mmHg 93%
    05:00 +8°C° 0 mm 5 mps 751 mmHg 91%
    06:00 +8°C° 0 mm 4 mps 751 mmHg 88%
    07:00 +10°C° 0 mm 4 mps 750 mmHg 82%
    08:00 +11°C° 0 mm 4 mps 750 mmHg 75%
    09:00 +12°C° 0 mm 5 mps 750 mmHg 69%
    10:00 +13°C° 0.1 mm 4 mps 750 mmHg 67%
    11:00 +13°C° 0.1 mm 4 mps 749 mmHg 65%
    12:00 +14°C° 0.1 mm 4 mps 749 mmHg 63%
    13:00 +13°C° 0.2 mm 4 mps 748 mmHg 68%
    14:00 +13°C° 0.2 mm 3 mps 748 mmHg 73%
    15:00 +13°C° 0.2 mm 3 mps 748 mmHg 78%
    16:00 +13°C° 0.3 mm 3 mps 747 mmHg 79%
    17:00 +13°C° 0.3 mm 3 mps 747 mmHg 80%
    18:00 +13°C° 0.3 mm 3 mps 747 mmHg 81%
    19:00 +12°C° 0.3 mm 3 mps 746 mmHg 85%
    20:00 +11°C° 0.3 mm 3 mps 746 mmHg 89%
    21:00 +10°C° 0.3 mm 3 mps 746 mmHg 94%
    22:00 +8°C° 0.2 mm 4 mps 746 mmHg 94%
    23:00 +8°C° 0.2 mm 4 mps 745 mmHg 95%

    Mañana, 5 Junio, Viernes

    Tiempo Temperatura Precipitaciones Viento Presión Humedad
    00:00 +8°C° 0.2 mm 5 mps 745 mmHg 96%
    01:00 +7°C° 0 mm 5 mps 744 mmHg 95%
    02:00 +7°C° 0 mm 5 mps 744 mmHg 94%
    03:00 +6°C° 0 mm 5 mps 743 mmHg 94%
    04:00 +6°C° 0 mm 5 mps 743 mmHg 93%
    05:00 +7°C° 0 mm 5 mps 743 mmHg 92%
    06:00 +7°C° 0 mm 6 mps 743 mmHg 92%
    07:00 +7°C° 0.3 mm 5 mps 743 mmHg 91%
    08:00 +8°C° 0.3 mm 5 mps 743 mmHg 89%
    09:00 +8°C° 0.3 mm 5 mps 743 mmHg 88%
    10:00 +9°C° 0.5 mm 6 mps 743 mmHg 85%
    11:00 +9°C° 0.5 mm 7 mps 743 mmHg 81%
    12:00 +10°C° 0.5 mm 7 mps 744 mmHg 77%
    13:00 +11°C° 0.2 mm 8 mps 744 mmHg 70%
    14:00 +12°C° 0.2 mm 8 mps 744 mmHg 62%
    15:00 +13°C° 0.2 mm 8 mps 744 mmHg 54%
    16:00 +12°C° 0.2 mm 8 mps 743 mmHg 61%
    17:00 +11°C° 0.2 mm 7 mps 743 mmHg 67%
    18:00 +10°C° 0.2 mm 7 mps 743 mmHg 74%
    19:00 +9°C° 0 mm 6 mps 744 mmHg 76%
    20:00 +7°C° 0 mm 6 mps 744 mmHg 77%
    21:00 +6°C° 0 mm 5 mps 744 mmHg 79%
    22:00 +5°C° 0 mm 6 mps 744 mmHg 80%
    23:00 +4°C° 0 mm 6 mps 744 mmHg 80%

    Pasado mañana, 6 Junio, Sábado

    Tiempo Temperatura Precipitaciones Viento Presión Humedad
    00:00 +4°C° 0 mm 7 mps 744 mmHg 81%
    01:00 +4°C° 0 mm 7 mps 744 mmHg 79%
    02:00 +4°C° 0 mm 8 mps 743 mmHg 77%
    03:00 +4°C° 0 mm 8 mps 743 mmHg 75%
    04:00 +3°C° 0.1 mm 9 mps 742 mmHg 76%
    05:00 +5°C° 0.1 mm 10 mps 742 mmHg 76%
    06:00 +6°C° 0.1 mm 11 mps 741 mmHg 77%
    07:00 +7°C° 0.4 mm 10 mps 741 mmHg 80%
    08:00 +8°C° 0.4 mm 10 mps 741 mmHg 83%
    09:00 +10°C° 0.4 mm 9 mps 741 mmHg 86%
    10:00 +11°C° 0.6 mm 9 mps 742 mmHg 82%
    11:00 +12°C° 0.6 mm 8 mps 742 mmHg 78%
    12:00 +13°C° 0.6 mm 8 mps 743 mmHg 74%
    13:00 +12°C° 0.5 mm 8 mps 743 mmHg 76%
    14:00 +11°C° 0.5 mm 7 mps 744 mmHg 79%
    15:00 +11°C° 0.5 mm 7 mps 744 mmHg 81%
    16:00 +11°C° 0.1 mm 6 mps 745 mmHg 80%
    17:00 +13°C° 0.1 mm 6 mps 745 mmHg 78%
    18:00 +14°C° 0.1 mm 5 mps 746 mmHg 77%
    19:00 +12°C° 0.1 mm 5 mps 746 mmHg 82%
    20:00 +11°C° 0.1 mm 4 mps 747 mmHg 86%
    21:00 +10°C° 0.1 mm 4 mps 748 mmHg 91%
    22:00 +8°C° 0 mm 4 mps 748 mmHg 92%
    23:00 +8°C° 0 mm 4 mps 748 mmHg 93%

    7 Junio, Domingo

    Tiempo Temperatura Precipitaciones Viento Presión Humedad
    00:00 +7°C° 0 mm 4 mps 749 mmHg 95%
    01:00 +7°C° 0 mm 4 mps 749 mmHg 95%
    02:00 +6°C° 0 mm 4 mps 749 mmHg 95%
    03:00 +6°C° 0 mm 4 mps 749 mmHg 95%
    04:00 +7°C° 0 mm 4 mps 749 mmHg 94%
    05:00 +8°C° 0 mm 4 mps 749 mmHg 93%
    06:00 +8°C° 0 mm 5 mps 749 mmHg 92%
    07:00 +10°C° 0.1 mm 5 mps 750 mmHg 90%
    08:00 +12°C° 0.1 mm 4 mps 750 mmHg 88%
    09:00 +13°C° 0.1 mm 4 mps 751 mmHg 86%
    10:00 +13°C° 0.4 mm 4 mps 751 mmHg 86%
    11:00 +13°C° 0.4 mm 4 mps 751 mmHg 87%
    12:00 +13°C° 0.4 mm 3 mps 752 mmHg 88%
    13:00 +13°C° 0.4 mm 4 mps 752 mmHg 88%
    14:00 +14°C° 0.4 mm 4 mps 752 mmHg 87%
    15:00 +14°C° 0.4 mm 4 mps 752 mmHg 86%
    16:00 +13°C° 0.1 mm 4 mps 753 mmHg 87%
    17:00 +13°C° 0.1 mm 4 mps 753 mmHg 87%
    18:00 +12°C° 0.1 mm 4 mps 753 mmHg 88%
    19:00 +11°C° 0 mm 4 mps 754 mmHg 89%
    20:00 +11°C° 0 mm 3 mps 754 mmHg 90%
    21:00 +10°C° 0 mm 3 mps 755 mmHg 91%
    22:00 +10°C° 0 mm 3 mps 755 mmHg 91%
    23:00 +10°C° 0 mm 3 mps 755 mmHg 91%

    8 Junio, Lunes

    Tiempo Temperatura Precipitaciones Viento Presión Humedad
    00:00 +8°C° 0 mm 4 mps 755 mmHg 91%
    01:00 +8°C° 0 mm 4 mps 755 mmHg 91%
    02:00 +8°C° 0 mm 4 mps 756 mmHg 91%
    03:00 +8°C° 0 mm 5 mps 756 mmHg 92%
    04:00 +9°C° 0 mm 5 mps 756 mmHg 91%
    05:00 +9°C° 0 mm 5 mps 756 mmHg 90%
    06:00 +9°C° 0 mm 5 mps 757 mmHg 90%
    07:00 +9°C° 0 mm 5 mps 757 mmHg 88%
    08:00 +10°C° 0 mm 5 mps 757 mmHg 86%
    09:00 +10°C° 0 mm 5 mps 758 mmHg 84%
    10:00 +10°C° 0 mm 6 mps 758 mmHg 83%
    11:00 +11°C° 0 mm 6 mps 758 mmHg 82%
    12:00 +11°C° 0 mm 6 mps 758 mmHg 81%
    13:00 +11°C° 0.1 mm 6 mps 758 mmHg 83%
    14:00 +11°C° 0.1 mm 6 mps 758 mmHg 85%
    15:00 +11°C° 0.1 mm 6 mps 758 mmHg 88%
    16:00 +11°C° 0.1 mm 6 mps 758 mmHg 86%
    17:00 +13°C° 0.1 mm 6 mps 759 mmHg 84%
    18:00 +13°C° 0.1 mm 6 mps 759 mmHg 82%
    19:00 +12°C° 0 mm 5 mps 759 mmHg 86%
    20:00 +10°C° 0 mm 5 mps 759 mmHg 90%
    21:00 +10°C° 0 mm 4 mps 760 mmHg 94%
    22:00 +10°C° 0 mm 4 mps 760 mmHg 94%
    23:00 +10°C° 0 mm 4 mps 760 mmHg 94%

    9 Junio, Martes

    Tiempo Temperatura Precipitaciones Viento Presión Humedad
    00:00 +10°C° 0 mm 4 mps 760 mmHg 94%
    01:00 +10°C° 0 mm 4 mps 760 mmHg 94%
    02:00 +8°C° 0 mm 4 mps 760 mmHg 93%
    03:00 +8°C° 0 mm 4 mps 760 mmHg 93%
    04:00 +9°C° 0 mm 5 mps 760 mmHg 92%
    05:00 +9°C° 0 mm 5 mps 761 mmHg 91%
    06:00 +9°C° 0 mm 5 mps 761 mmHg 90%
    07:00 +10°C° 0 mm 5 mps 761 mmHg 87%
    08:00 +12°C° 0 mm 5 mps 761 mmHg 83%
    09:00 +13°C° 0 mm 5 mps 761 mmHg 80%
    10:00 +13°C° 0.1 mm 5 mps 761 mmHg 81%
    11:00 +13°C° 0.1 mm 4 mps 761 mmHg 81%
    12:00 +14°C° 0.1 mm 4 mps 762 mmHg 82%
    13:00 +14°C° 0.2 mm 4 mps 761 mmHg 82%
    14:00 +14°C° 0.2 mm 4 mps 761 mmHg 82%
    15:00 +15°C° 0.2 mm 4 mps 761 mmHg 83%
    16:00 +14°C° 0.2 mm 4 mps 762 mmHg 85%
    17:00 +14°C° 0.2 mm 3 mps 762 mmHg 87%
    18:00 +14°C° 0.2 mm 3 mps 762 mmHg 89%
    19:00 +12°C° 0 mm 3 mps 762 mmHg 91%
    20:00 +11°C° 0 mm 3 mps 763 mmHg 93%
    21:00 +10°C° 0 mm 3 mps 763 mmHg 95%
    22:00 +10°C° 0 mm 2 mps 763 mmHg 95%
    23:00 +9°C° 0 mm 2 mps 763 mmHg 96%
    Mostrar más